Year,Month,Day,Hour,Minute,Value (Times are PST for temperature in C)
2016,08,12,00,00,15.40
2016,08,12,00,01,15.40
2016,08,12,00,02,15.40
2016,08,12,00,03,15.30
2016,08,12,00,04,15.30
2016,08,12,00,05,15.30
2016,08,12,00,06,15.30
2016,08,12,00,07,15.30
2016,08,12,00,08,15.30
2016,08,12,00,09,15.20
2016,08,12,00,10,15.20
2016,08,12,00,11,15.20
2016,08,12,00,12,15.20
2016,08,12,00,13,15.20
2016,08,12,00,14,15.20
2016,08,12,00,15,15.20
2016,08,12,00,16,15.20
2016,08,12,00,17,15.20
2016,08,12,00,18,15.20
2016,08,12,00,19,15.20
2016,08,12,00,20,15.20
2016,08,12,00,21,15.20
2016,08,12,00,22,15.20
2016,08,12,00,23,15.20
2016,08,12,00,24,15.20
2016,08,12,00,25,15.20
2016,08,12,00,26,15.20
2016,08,12,00,27,15.20
2016,08,12,00,28,15.20
2016,08,12,00,29,15.20
2016,08,12,00,30,15.20
2016,08,12,00,31,15.20
2016,08,12,00,32,15.20
2016,08,12,00,33,15.20
2016,08,12,00,34,15.20
2016,08,12,00,35,15.20
2016,08,12,00,36,15.20
2016,08,12,00,37,15.20
2016,08,12,00,38,15.20
2016,08,12,00,39,15.20
2016,08,12,00,40,15.20
2016,08,12,00,41,15.20
2016,08,12,00,42,15.20
2016,08,12,00,43,15.20
2016,08,12,00,44,15.20
2016,08,12,00,45,15.20
2016,08,12,00,46,15.20
2016,08,12,00,47,15.20
2016,08,12,00,48,15.20
2016,08,12,00,49,15.20
2016,08,12,00,50,15.20
2016,08,12,00,51,15.10
2016,08,12,00,52,15.10
2016,08,12,00,53,15.10
2016,08,12,00,54,15.00
2016,08,12,00,55,15.00
2016,08,12,00,56,15.00
2016,08,12,00,57,14.90
2016,08,12,00,58,14.90
2016,08,12,00,59,14.80
2016,08,12,01,00,14.80
2016,08,12,01,01,14.80
2016,08,12,01,02,14.80
2016,08,12,01,03,14.80
2016,08,12,01,04,14.80
2016,08,12,01,05,14.70
2016,08,12,01,06,14.70
2016,08,12,01,07,14.80
2016,08,12,01,08,14.80
2016,08,12,01,09,14.80
2016,08,12,01,10,14.80
2016,08,12,01,11,14.80
2016,08,12,01,12,14.80
2016,08,12,01,13,14.80
2016,08,12,01,14,14.80
2016,08,12,01,15,14.80
2016,08,12,01,16,14.80
2016,08,12,01,17,14.80
2016,08,12,01,18,14.80
2016,08,12,01,19,14.80
2016,08,12,01,20,14.80
2016,08,12,01,21,14.80
2016,08,12,01,22,14.80
2016,08,12,01,23,14.80
2016,08,12,01,24,14.80
2016,08,12,01,25,14.90
2016,08,12,01,26,14.90
2016,08,12,01,27,14.90
2016,08,12,01,28,14.90
2016,08,12,01,29,14.90
2016,08,12,01,30,14.80
2016,08,12,01,31,14.80
2016,08,12,01,32,14.80
2016,08,12,01,33,14.80
2016,08,12,01,34,14.80
2016,08,12,01,35,14.80
2016,08,12,01,36,14.80
2016,08,12,01,37,14.80
2016,08,12,01,38,14.80
2016,08,12,01,39,14.80
2016,08,12,01,40,14.80
2016,08,12,01,41,14.80
2016,08,12,01,42,14.80
2016,08,12,01,43,14.80
2016,08,12,01,44,14.80
2016,08,12,01,45,14.80
2016,08,12,01,46,14.70
2016,08,12,01,47,14.70
2016,08,12,01,48,14.70
2016,08,12,01,49,14.70
2016,08,12,01,50,14.70
2016,08,12,01,51,14.70
2016,08,12,01,52,14.70
2016,08,12,01,53,14.70
2016,08,12,01,54,14.70
2016,08,12,01,55,14.70
2016,08,12,01,56,14.70
2016,08,12,01,57,14.60
2016,08,12,01,58,14.60
2016,08,12,01,59,14.60
2016,08,12,02,00,14.60
2016,08,12,02,01,14.60
2016,08,12,02,02,14.70
2016,08,12,02,03,14.70
2016,08,12,02,04,14.70
2016,08,12,02,05,14.70
2016,08,12,02,06,14.60
2016,08,12,02,07,14.60
2016,08,12,02,08,14.70
2016,08,12,02,09,14.70
2016,08,12,02,10,14.60
2016,08,12,02,11,14.60
2016,08,12,02,12,14.60
2016,08,12,02,13,14.60
2016,08,12,02,14,14.60
2016,08,12,02,15,14.60
2016,08,12,02,16,14.60
2016,08,12,02,17,14.60
2016,08,12,02,18,14.60
2016,08,12,02,19,14.60
2016,08,12,02,20,14.60
2016,08,12,02,21,14.60
2016,08,12,02,22,14.70
2016,08,12,02,23,14.70
2016,08,12,02,24,14.70
2016,08,12,02,25,14.80
2016,08,12,02,26,14.70
2016,08,12,02,27,14.70
2016,08,12,02,28,14.70
2016,08,12,02,29,14.70
2016,08,12,02,30,14.70
2016,08,12,02,31,14.70
2016,08,12,02,32,14.70
2016,08,12,02,33,14.70
2016,08,12,02,34,14.80
2016,08,12,02,35,14.80
2016,08,12,02,36,14.80
2016,08,12,02,37,14.90
2016,08,12,02,38,14.90
2016,08,12,02,39,14.90
2016,08,12,02,40,14.90
2016,08,12,02,41,14.90
2016,08,12,02,42,14.90
2016,08,12,02,43,14.90
2016,08,12,02,44,14.90
2016,08,12,02,45,14.90
2016,08,12,02,46,14.90
2016,08,12,02,47,14.90
2016,08,12,02,48,14.90
2016,08,12,02,49,14.90
2016,08,12,02,50,14.90
2016,08,12,02,51,14.90
2016,08,12,02,52,14.90
2016,08,12,02,53,14.90
2016,08,12,02,54,14.90
2016,08,12,02,55,14.90
2016,08,12,02,56,14.80
2016,08,12,02,57,14.80
2016,08,12,02,58,14.80
2016,08,12,02,59,14.80
2016,08,12,03,00,14.80
2016,08,12,03,01,14.80
2016,08,12,03,02,14.80
2016,08,12,03,03,14.80
2016,08,12,03,04,14.80
2016,08,12,03,05,14.80
2016,08,12,03,06,14.80
2016,08,12,03,07,14.80
2016,08,12,03,08,14.80
2016,08,12,03,09,14.80
2016,08,12,03,10,14.80
2016,08,12,03,11,14.80
2016,08,12,03,12,14.80
2016,08,12,03,13,14.80
2016,08,12,03,14,14.70
2016,08,12,03,15,14.70
2016,08,12,03,16,14.80
2016,08,12,03,17,14.80
2016,08,12,03,18,14.80
2016,08,12,03,19,14.80
2016,08,12,03,20,14.80
2016,08,12,03,21,14.80
2016,08,12,03,22,14.80
2016,08,12,03,23,14.80
2016,08,12,03,24,14.90
2016,08,12,03,25,14.90
2016,08,12,03,26,14.90
2016,08,12,03,27,14.90
2016,08,12,03,28,14.90
2016,08,12,03,29,14.90
2016,08,12,03,30,14.90
2016,08,12,03,31,14.90
2016,08,12,03,32,14.90
2016,08,12,03,33,14.90
2016,08,12,03,34,14.90
2016,08,12,03,35,14.90
2016,08,12,03,36,14.90
2016,08,12,03,37,14.90
2016,08,12,03,38,14.90
2016,08,12,03,39,14.90
2016,08,12,03,40,14.90
2016,08,12,03,41,15.00
2016,08,12,03,42,15.00
2016,08,12,03,43,15.10
2016,08,12,03,44,15.10
2016,08,12,03,45,15.10
2016,08,12,03,46,15.20
2016,08,12,03,47,15.30
2016,08,12,03,48,15.30
2016,08,12,03,49,15.30
2016,08,12,03,50,15.40
2016,08,12,03,51,15.40
2016,08,12,03,52,15.40
2016,08,12,03,53,15.40
2016,08,12,03,54,15.40
2016,08,12,03,55,15.40
2016,08,12,03,56,15.30
2016,08,12,03,57,15.30
2016,08,12,03,58,15.30
2016,08,12,03,59,15.30
2016,08,12,04,00,15.30
2016,08,12,04,01,15.40
2016,08,12,04,02,15.40
2016,08,12,04,03,15.40
2016,08,12,04,04,15.50
2016,08,12,04,05,15.60
2016,08,12,04,06,15.60
2016,08,12,04,07,15.60
2016,08,12,04,08,15.60
2016,08,12,04,09,15.60
2016,08,12,04,10,15.60
2016,08,12,04,11,15.60
2016,08,12,04,12,15.70
2016,08,12,04,13,15.80
2016,08,12,04,14,15.90
2016,08,12,04,15,15.90
2016,08,12,04,16,15.90
2016,08,12,04,17,15.90
2016,08,12,04,18,15.90
2016,08,12,04,19,15.90
2016,08,12,04,20,16.00
2016,08,12,04,21,16.10
2016,08,12,04,22,16.10
2016,08,12,04,23,16.10
2016,08,12,04,24,16.10
2016,08,12,04,25,16.20
2016,08,12,04,26,16.30
2016,08,12,04,27,16.30
2016,08,12,04,28,16.40
2016,08,12,04,29,16.50
2016,08,12,04,30,16.50
2016,08,12,04,31,16.60
2016,08,12,04,32,16.60
2016,08,12,04,33,16.60
2016,08,12,04,34,16.70
2016,08,12,04,35,16.70
2016,08,12,04,36,16.80
2016,08,12,04,37,16.80
2016,08,12,04,38,16.80
2016,08,12,04,39,16.80
2016,08,12,04,40,16.80
2016,08,12,04,41,16.80
2016,08,12,04,42,16.80
2016,08,12,04,43,16.90
2016,08,12,04,44,16.90
2016,08,12,04,45,16.90
2016,08,12,04,46,17.00
2016,08,12,04,47,17.10
2016,08,12,04,48,17.20
2016,08,12,04,49,17.20
2016,08,12,04,50,17.20
2016,08,12,04,51,17.20
2016,08,12,04,52,17.30
2016,08,12,04,53,17.40
2016,08,12,04,54,17.40
2016,08,12,04,55,17.50
2016,08,12,04,56,17.50
2016,08,12,04,57,17.50
2016,08,12,04,58,17.60
2016,08,12,04,59,17.60
2016,08,12,05,00,17.60
2016,08,12,05,01,17.50
2016,08,12,05,02,17.50
2016,08,12,05,03,17.40
2016,08,12,05,04,17.40
2016,08,12,05,05,17.30
2016,08,12,05,06,17.30
2016,08,12,05,07,17.30
2016,08,12,05,08,17.30
2016,08,12,05,09,17.20
2016,08,12,05,10,17.20
2016,08,12,05,11,17.20
2016,08,12,05,12,17.10
2016,08,12,05,13,17.10
2016,08,12,05,14,17.10
2016,08,12,05,15,17.10
2016,08,12,05,16,17.10
2016,08,12,05,17,17.20
2016,08,12,05,18,17.20
2016,08,12,05,19,17.20
2016,08,12,05,20,17.20
2016,08,12,05,21,17.20
2016,08,12,05,22,17.20
2016,08,12,05,23,17.20
2016,08,12,05,24,17.20
2016,08,12,05,25,17.20
2016,08,12,05,26,17.20
2016,08,12,05,27,17.20
2016,08,12,05,28,17.20
2016,08,12,05,29,17.20
2016,08,12,05,30,17.10
2016,08,12,05,31,17.20
2016,08,12,05,32,17.10
2016,08,12,05,33,17.10
2016,08,12,05,34,17.10
2016,08,12,05,35,17.10
2016,08,12,05,36,17.10
2016,08,12,05,37,17.20
2016,08,12,05,38,17.20
2016,08,12,05,39,17.20
2016,08,12,05,40,17.10
2016,08,12,05,41,17.10
2016,08,12,05,42,17.00
2016,08,12,05,43,17.00
2016,08,12,05,44,16.90
2016,08,12,05,45,16.90
2016,08,12,05,46,16.90
2016,08,12,05,47,16.90
2016,08,12,05,48,16.80
2016,08,12,05,49,16.80
2016,08,12,05,50,16.70
2016,08,12,05,51,16.70
2016,08,12,05,52,16.60
2016,08,12,05,53,16.60
2016,08,12,05,54,16.50
2016,08,12,05,55,16.40
2016,08,12,05,56,16.40
2016,08,12,05,57,16.40
2016,08,12,05,58,16.30
2016,08,12,05,59,16.30
2016,08,12,06,00,16.30
2016,08,12,06,01,16.30
2016,08,12,06,02,16.30
2016,08,12,06,03,16.30
2016,08,12,06,04,16.30
2016,08,12,06,05,16.20
2016,08,12,06,06,16.20
2016,08,12,06,07,16.10
2016,08,12,06,08,16.10
2016,08,12,06,09,16.10
2016,08,12,06,10,16.10
2016,08,12,06,11,16.20
2016,08,12,06,12,16.20
2016,08,12,06,13,16.20
2016,08,12,06,14,16.20
2016,08,12,06,15,16.20
2016,08,12,06,16,16.20
2016,08,12,06,17,16.10
2016,08,12,06,18,16.10
2016,08,12,06,19,16.10
2016,08,12,06,20,16.10
2016,08,12,06,21,16.10
2016,08,12,06,22,16.10
2016,08,12,06,23,16.10
2016,08,12,06,24,16.10
2016,08,12,06,25,16.10
2016,08,12,06,26,16.10
2016,08,12,06,27,16.10
2016,08,12,06,28,16.00
2016,08,12,06,29,16.00
2016,08,12,06,30,15.90
2016,08,12,06,31,15.90
2016,08,12,06,32,15.90
2016,08,12,06,33,15.90
2016,08,12,06,34,15.80
2016,08,12,06,35,15.80
2016,08,12,06,36,15.90
2016,08,12,06,37,15.80
2016,08,12,06,38,15.80
2016,08,12,06,39,15.80
2016,08,12,06,40,15.80
2016,08,12,06,41,15.80
2016,08,12,06,42,15.80
2016,08,12,06,43,15.80
2016,08,12,06,44,15.80
2016,08,12,06,45,15.80
2016,08,12,06,46,15.80
2016,08,12,06,47,15.90
2016,08,12,06,48,15.90
2016,08,12,06,49,16.00
2016,08,12,06,50,16.00
2016,08,12,06,51,15.90
2016,08,12,06,52,15.90
2016,08,12,06,53,15.90
2016,08,12,06,54,15.90
2016,08,12,06,55,16.00
2016,08,12,06,56,16.00
2016,08,12,06,57,15.90
2016,08,12,06,58,15.90
2016,08,12,06,59,15.90
2016,08,12,07,00,15.90
2016,08,12,07,01,15.90
2016,08,12,07,02,16.00
2016,08,12,07,03,16.00
2016,08,12,07,04,16.10
2016,08,12,07,05,16.10
2016,08,12,07,06,16.30
2016,08,12,07,07,16.50
2016,08,12,07,08,16.70
2016,08,12,07,09,16.80
2016,08,12,07,10,16.80
2016,08,12,07,11,16.80
2016,08,12,07,12,16.90
2016,08,12,07,13,16.90
2016,08,12,07,14,16.80
2016,08,12,07,15,16.80
2016,08,12,07,16,16.80
2016,08,12,07,17,16.80
2016,08,12,07,18,16.90
2016,08,12,07,19,17.00
2016,08,12,07,20,17.10
2016,08,12,07,21,17.20
2016,08,12,07,22,17.20
2016,08,12,07,23,17.40
2016,08,12,07,24,17.50
2016,08,12,07,25,17.60
2016,08,12,07,26,17.70
2016,08,12,07,27,17.80
2016,08,12,07,28,17.90
2016,08,12,07,29,18.00
2016,08,12,07,30,18.10
2016,08,12,07,31,18.20
2016,08,12,07,32,18.30
2016,08,12,07,33,18.30
2016,08,12,07,34,18.30
2016,08,12,07,35,18.30
2016,08,12,07,36,18.30
2016,08,12,07,37,18.30
2016,08,12,07,38,18.30
2016,08,12,07,39,18.20
2016,08,12,07,40,18.10
2016,08,12,07,41,18.10
2016,08,12,07,42,18.10
2016,08,12,07,43,18.10
2016,08,12,07,44,18.10
2016,08,12,07,45,18.10
2016,08,12,07,46,18.10
2016,08,12,07,47,18.10
2016,08,12,07,48,18.10
2016,08,12,07,49,18.10
2016,08,12,07,50,18.10
2016,08,12,07,51,18.20
2016,08,12,07,52,18.20
2016,08,12,07,53,18.30
2016,08,12,07,54,18.30
2016,08,12,07,55,18.30
2016,08,12,07,56,18.40
2016,08,12,07,57,18.50
2016,08,12,07,58,18.60
2016,08,12,07,59,18.60
2016,08,12,08,00,18.70
2016,08,12,08,01,18.70
2016,08,12,08,02,18.70
2016,08,12,08,03,18.70
2016,08,12,08,04,18.80
2016,08,12,08,05,18.80
2016,08,12,08,06,18.80
2016,08,12,08,07,18.80
2016,08,12,08,08,18.80
2016,08,12,08,09,18.80
2016,08,12,08,10,18.90
2016,08,12,08,11,18.90
2016,08,12,08,12,18.90
2016,08,12,08,13,18.90
2016,08,12,08,14,18.90
2016,08,12,08,15,18.90
2016,08,12,08,16,18.90
2016,08,12,08,17,19.00
2016,08,12,08,18,19.10
2016,08,12,08,19,19.10
2016,08,12,08,20,19.10
2016,08,12,08,21,19.10
2016,08,12,08,22,19.10
2016,08,12,08,23,19.20
2016,08,12,08,24,19.20
2016,08,12,08,25,19.20
2016,08,12,08,26,19.20
2016,08,12,08,27,19.20
2016,08,12,08,28,19.20
2016,08,12,08,29,19.20
2016,08,12,08,30,19.20
2016,08,12,08,31,19.20
2016,08,12,08,32,19.30
2016,08,12,08,33,19.30
2016,08,12,08,34,19.30
2016,08,12,08,35,19.30
2016,08,12,08,36,19.30
2016,08,12,08,37,19.30
2016,08,12,08,38,19.30
2016,08,12,08,39,19.30
2016,08,12,08,40,19.30
2016,08,12,08,41,19.30
2016,08,12,08,42,19.30
2016,08,12,08,43,19.30
2016,08,12,08,44,19.30
2016,08,12,08,45,19.30
2016,08,12,08,46,19.30
2016,08,12,08,47,19.30
2016,08,12,08,48,19.30
2016,08,12,08,49,19.30
2016,08,12,08,50,19.30
2016,08,12,08,51,19.30
2016,08,12,08,52,19.30
2016,08,12,08,53,19.30
2016,08,12,08,54,19.30
2016,08,12,08,55,19.40
2016,08,12,08,56,19.40
2016,08,12,08,57,19.30
2016,08,12,08,58,19.30
2016,08,12,08,59,19.30
2016,08,12,09,00,19.30
2016,08,12,09,01,19.30
2016,08,12,09,02,19.30
2016,08,12,09,03,19.30
2016,08,12,09,04,19.30
2016,08,12,09,05,19.40
2016,08,12,09,06,19.40
2016,08,12,09,07,19.40
2016,08,12,09,08,19.40
2016,08,12,09,09,19.40
2016,08,12,09,10,19.40
2016,08,12,09,11,19.40
2016,08,12,09,12,19.40
2016,08,12,09,13,19.50
2016,08,12,09,14,19.50
2016,08,12,09,15,19.50
2016,08,12,09,16,19.60
2016,08,12,09,17,19.60
2016,08,12,09,18,19.60
2016,08,12,09,19,19.70
2016,08,12,09,20,19.70
2016,08,12,09,21,19.70
2016,08,12,09,22,19.70
2016,08,12,09,23,19.70
2016,08,12,09,24,19.60
2016,08,12,09,25,19.60
2016,08,12,09,26,19.60
2016,08,12,09,27,19.60
2016,08,12,09,28,19.60
2016,08,12,09,29,19.60
2016,08,12,09,30,19.60
2016,08,12,09,31,19.60
2016,08,12,09,32,19.70
2016,08,12,09,33,19.70
2016,08,12,09,34,19.70
2016,08,12,09,35,19.70
2016,08,12,09,36,19.70
2016,08,12,09,37,19.70
2016,08,12,09,38,19.70
2016,08,12,09,39,19.70
2016,08,12,09,40,19.70
2016,08,12,09,41,19.80
2016,08,12,09,42,19.80
2016,08,12,09,43,19.70
2016,08,12,09,44,19.70
2016,08,12,09,45,19.70
2016,08,12,09,46,19.70
2016,08,12,09,47,19.80
2016,08,12,09,48,19.80
2016,08,12,09,49,19.90
2016,08,12,09,50,19.90
2016,08,12,09,51,20.10
2016,08,12,09,52,20.10
2016,08,12,09,53,20.20
2016,08,12,09,54,20.20
2016,08,12,09,55,20.30
2016,08,12,09,56,20.30
2016,08,12,09,57,20.30
2016,08,12,09,58,20.40
2016,08,12,09,59,20.40
2016,08,12,10,00,20.40
2016,08,12,10,01,20.40
2016,08,12,10,02,20.30
2016,08,12,10,03,20.20
2016,08,12,10,04,20.20
2016,08,12,10,05,20.20
2016,08,12,10,06,20.30
2016,08,12,10,07,20.30
2016,08,12,10,08,20.30
2016,08,12,10,09,20.40
2016,08,12,10,10,20.60
2016,08,12,10,11,20.70
2016,08,12,10,12,20.80
2016,08,12,10,13,20.90
2016,08,12,10,14,21.00
2016,08,12,10,15,21.00
2016,08,12,10,16,21.00
2016,08,12,10,17,21.00
2016,08,12,10,18,21.00
2016,08,12,10,19,21.10
2016,08,12,10,20,21.10
2016,08,12,10,21,21.10
2016,08,12,10,22,21.00
2016,08,12,10,23,20.90
2016,08,12,10,24,20.90
2016,08,12,10,25,20.90
2016,08,12,10,26,20.90
2016,08,12,10,27,20.90
2016,08,12,10,28,21.00
2016,08,12,10,29,21.00
2016,08,12,10,30,20.90
2016,08,12,10,31,20.80
2016,08,12,10,32,20.70
2016,08,12,10,33,20.70
2016,08,12,10,34,20.70
2016,08,12,10,35,20.70
2016,08,12,10,36,20.70
2016,08,12,10,37,20.90
2016,08,12,10,38,21.00
2016,08,12,10,39,21.10
2016,08,12,10,40,21.20
2016,08,12,10,41,21.20
2016,08,12,10,42,21.30
2016,08,12,10,43,21.40
2016,08,12,10,44,21.40
2016,08,12,10,45,21.40
2016,08,12,10,46,21.40
2016,08,12,10,47,21.30
2016,08,12,10,48,21.20
2016,08,12,10,49,21.10
2016,08,12,10,50,21.10
2016,08,12,10,51,21.10
2016,08,12,10,52,21.10
2016,08,12,10,53,21.10
2016,08,12,10,54,21.20
2016,08,12,10,55,21.30
2016,08,12,10,56,21.30
2016,08,12,10,57,21.50
2016,08,12,10,58,21.60
2016,08,12,10,59,21.60
2016,08,12,11,00,21.80
2016,08,12,11,01,21.90
2016,08,12,11,02,22.00
2016,08,12,11,03,22.20
2016,08,12,11,04,22.30
2016,08,12,11,05,22.30
2016,08,12,11,06,22.30
2016,08,12,11,07,22.30
2016,08,12,11,08,22.30
2016,08,12,11,09,22.30
2016,08,12,11,10,22.30
2016,08,12,11,11,22.10
2016,08,12,11,12,21.90
2016,08,12,11,13,21.80
2016,08,12,11,14,21.80
2016,08,12,11,15,21.90
2016,08,12,11,16,21.90
2016,08,12,11,17,21.90
2016,08,12,11,18,21.90
2016,08,12,11,19,21.90
2016,08,12,11,20,21.90
2016,08,12,11,21,22.00
2016,08,12,11,22,22.00
2016,08,12,11,23,22.00
2016,08,12,11,24,22.10
2016,08,12,11,25,22.10
2016,08,12,11,26,22.00
2016,08,12,11,27,21.90
2016,08,12,11,28,21.80
2016,08,12,11,29,21.90
2016,08,12,11,30,21.90
2016,08,12,11,31,21.90
2016,08,12,11,32,22.00
2016,08,12,11,33,22.10
2016,08,12,11,34,22.20
2016,08,12,11,35,22.10
2016,08,12,11,36,22.10
2016,08,12,11,37,22.00
2016,08,12,11,38,21.90
2016,08,12,11,39,21.90
2016,08,12,11,40,21.90
2016,08,12,11,41,21.80
2016,08,12,11,42,21.70
2016,08,12,11,43,21.80
2016,08,12,11,44,21.80
2016,08,12,11,45,22.00
2016,08,12,11,46,22.10
2016,08,12,11,47,22.00
2016,08,12,11,48,22.00
2016,08,12,11,49,22.10
2016,08,12,11,50,22.20
2016,08,12,11,51,22.30
2016,08,12,11,52,22.30
2016,08,12,11,53,22.30
2016,08,12,11,54,22.40
2016,08,12,11,55,22.50
2016,08,12,11,56,22.70
2016,08,12,11,57,22.80
2016,08,12,11,58,22.80
2016,08,12,11,59,22.90
2016,08,12,12,00,22.90
2016,08,12,12,01,22.90
2016,08,12,12,02,23.00
2016,08,12,12,03,23.00
2016,08,12,12,04,22.90
2016,08,12,12,05,22.80
2016,08,12,12,06,22.70
2016,08,12,12,07,22.70
2016,08,12,12,08,22.60
2016,08,12,12,09,22.50
2016,08,12,12,10,22.50
2016,08,12,12,11,22.50
2016,08,12,12,12,22.60
2016,08,12,12,13,22.80
2016,08,12,12,14,22.90
2016,08,12,12,15,22.90
2016,08,12,12,16,22.90
2016,08,12,12,17,22.90
2016,08,12,12,18,22.90
2016,08,12,12,19,23.00
2016,08,12,12,20,22.90
2016,08,12,12,21,22.90
2016,08,12,12,22,22.80
2016,08,12,12,23,22.70
2016,08,12,12,24,22.70
2016,08,12,12,25,22.70
2016,08,12,12,26,22.80
2016,08,12,12,27,22.90
2016,08,12,12,28,23.00
2016,08,12,12,29,23.00
2016,08,12,12,30,23.00
2016,08,12,12,31,23.00
2016,08,12,12,32,23.00
2016,08,12,12,33,22.90
2016,08,12,12,34,22.90
2016,08,12,12,35,22.80
2016,08,12,12,36,22.80
2016,08,12,12,37,22.70
2016,08,12,12,38,22.70
2016,08,12,12,39,22.80
2016,08,12,12,40,22.80
2016,08,12,12,41,22.80
2016,08,12,12,42,22.80
2016,08,12,12,43,22.80
2016,08,12,12,44,22.70
2016,08,12,12,45,22.70
2016,08,12,12,46,22.70
2016,08,12,12,47,22.70
2016,08,12,12,48,22.60
2016,08,12,12,49,22.60
2016,08,12,12,50,22.60
2016,08,12,12,51,22.60
2016,08,12,12,52,22.60
2016,08,12,12,53,22.70
2016,08,12,12,54,22.80
2016,08,12,12,55,22.80
2016,08,12,12,56,22.90
2016,08,12,12,57,23.00
2016,08,12,12,58,23.20
2016,08,12,12,59,23.30
2016,08,12,13,00,23.40
2016,08,12,13,01,23.50
2016,08,12,13,02,23.60
2016,08,12,13,03,23.80
2016,08,12,13,04,23.90
2016,08,12,13,05,24.10
2016,08,12,13,06,24.20
2016,08,12,13,07,24.20
2016,08,12,13,08,24.20
2016,08,12,13,09,24.10
2016,08,12,13,10,24.00
2016,08,12,13,11,23.90
2016,08,12,13,12,23.80
2016,08,12,13,13,23.80
2016,08,12,13,14,23.90
2016,08,12,13,15,24.00
2016,08,12,13,16,24.10
2016,08,12,13,17,24.20
2016,08,12,13,18,24.20
2016,08,12,13,19,24.30
2016,08,12,13,20,24.40
2016,08,12,13,21,24.50
2016,08,12,13,22,24.50
2016,08,12,13,23,24.40
2016,08,12,13,24,24.30
2016,08,12,13,25,24.20
2016,08,12,13,26,24.20
2016,08,12,13,27,24.20
2016,08,12,13,28,24.30
2016,08,12,13,29,24.30
2016,08,12,13,30,24.40
2016,08,12,13,31,24.40
2016,08,12,13,32,24.30
2016,08,12,13,33,24.20
2016,08,12,13,34,24.10
2016,08,12,13,35,23.90
2016,08,12,13,36,23.80
2016,08,12,13,37,23.80
2016,08,12,13,38,23.80
2016,08,12,13,39,23.90
2016,08,12,13,40,24.00
2016,08,12,13,41,24.10
2016,08,12,13,42,24.20
2016,08,12,13,43,24.10
2016,08,12,13,44,24.00
2016,08,12,13,45,23.90
2016,08,12,13,46,23.90
2016,08,12,13,47,24.00
2016,08,12,13,48,24.00
2016,08,12,13,49,23.90
2016,08,12,13,50,23.80
2016,08,12,13,51,23.80
2016,08,12,13,52,23.80
2016,08,12,13,53,23.80
2016,08,12,13,54,23.90
2016,08,12,13,55,23.90
2016,08,12,13,56,23.90
2016,08,12,13,57,24.00
2016,08,12,13,58,24.10
2016,08,12,13,59,24.20
2016,08,12,14,00,24.20
2016,08,12,14,01,24.30
2016,08,12,14,02,24.20
2016,08,12,14,03,24.20
2016,08,12,14,04,24.20
2016,08,12,14,05,24.30
2016,08,12,14,06,24.40
2016,08,12,14,07,24.40
2016,08,12,14,08,24.40
2016,08,12,14,09,24.50
2016,08,12,14,10,24.60
2016,08,12,14,11,24.80
2016,08,12,14,12,24.90
2016,08,12,14,13,24.80
2016,08,12,14,14,24.80
2016,08,12,14,15,24.90
2016,08,12,14,16,24.80
2016,08,12,14,17,24.80
2016,08,12,14,18,24.80
2016,08,12,14,19,24.80
2016,08,12,14,20,24.80
2016,08,12,14,21,24.60
2016,08,12,14,22,24.50
2016,08,12,14,23,24.50
2016,08,12,14,24,24.50
2016,08,12,14,25,24.50
2016,08,12,14,26,24.50
2016,08,12,14,27,24.60
2016,08,12,14,28,24.60
2016,08,12,14,29,24.60
2016,08,12,14,30,24.60
2016,08,12,14,31,24.60
2016,08,12,14,32,24.70
2016,08,12,14,33,24.70
2016,08,12,14,34,24.80
2016,08,12,14,35,25.00
2016,08,12,14,36,25.10
2016,08,12,14,37,25.30
2016,08,12,14,38,25.40
2016,08,12,14,39,25.40
2016,08,12,14,40,25.40
2016,08,12,14,41,25.40
2016,08,12,14,42,25.40
2016,08,12,14,43,25.50
2016,08,12,14,44,25.50
2016,08,12,14,45,25.50
2016,08,12,14,46,25.60
2016,08,12,14,47,25.50
2016,08,12,14,48,25.50
2016,08,12,14,49,25.50
2016,08,12,14,50,25.40
2016,08,12,14,51,25.50
2016,08,12,14,52,25.50
2016,08,12,14,53,25.40
2016,08,12,14,54,25.30
2016,08,12,14,55,25.10
2016,08,12,14,56,24.90
2016,08,12,14,57,24.90
2016,08,12,14,58,25.00
2016,08,12,14,59,25.10
2016,08,12,15,00,25.20
2016,08,12,15,01,25.30
2016,08,12,15,02,25.40
2016,08,12,15,03,25.40
2016,08,12,15,04,25.40
2016,08,12,15,05,25.40
2016,08,12,15,06,25.40
2016,08,12,15,07,25.40
2016,08,12,15,08,25.40
2016,08,12,15,09,25.40
2016,08,12,15,10,25.40
2016,08,12,15,11,25.50
2016,08,12,15,12,25.50
2016,08,12,15,13,25.60
2016,08,12,15,14,25.60
2016,08,12,15,15,25.60
2016,08,12,15,16,25.50
2016,08,12,15,17,25.40
2016,08,12,15,18,25.40
2016,08,12,15,19,25.40
2016,08,12,15,20,25.40
2016,08,12,15,21,25.30
2016,08,12,15,22,25.30
2016,08,12,15,23,25.30
2016,08,12,15,24,25.30
2016,08,12,15,25,25.30
2016,08,12,15,26,25.40
2016,08,12,15,27,25.40
2016,08,12,15,28,25.40
2016,08,12,15,29,25.50
2016,08,12,15,30,25.50
2016,08,12,15,31,25.60
2016,08,12,15,32,25.60
2016,08,12,15,33,25.70
2016,08,12,15,34,25.70
2016,08,12,15,35,25.70
2016,08,12,15,36,25.70
2016,08,12,15,37,25.70
2016,08,12,15,38,25.80
2016,08,12,15,39,25.80
2016,08,12,15,40,25.90
2016,08,12,15,41,25.90
2016,08,12,15,42,25.90
2016,08,12,15,43,26.00
2016,08,12,15,44,26.10
2016,08,12,15,45,26.10
2016,08,12,15,46,26.20
2016,08,12,15,47,26.20
2016,08,12,15,48,26.20
2016,08,12,15,49,26.20
2016,08,12,15,50,26.20
2016,08,12,15,51,26.10
2016,08,12,15,52,26.10
2016,08,12,15,53,26.20
2016,08,12,15,54,26.20
2016,08,12,15,55,26.30
2016,08,12,15,56,26.40
2016,08,12,15,57,26.50
2016,08,12,15,58,26.50
2016,08,12,15,59,26.50
2016,08,12,16,00,26.30
2016,08,12,16,01,26.30
2016,08,12,16,02,26.30
2016,08,12,16,03,26.30
2016,08,12,16,04,26.20
2016,08,12,16,05,26.20
2016,08,12,16,06,26.30
2016,08,12,16,07,26.40
2016,08,12,16,08,26.40
2016,08,12,16,09,26.40
2016,08,12,16,10,26.40
2016,08,12,16,11,26.40
2016,08,12,16,12,26.40
2016,08,12,16,13,26.40
2016,08,12,16,14,26.40
2016,08,12,16,15,26.40
2016,08,12,16,16,26.30
2016,08,12,16,17,26.30
2016,08,12,16,18,26.30
2016,08,12,16,19,26.20
2016,08,12,16,20,26.20
2016,08,12,16,21,26.20
2016,08,12,16,22,26.20
2016,08,12,16,23,26.20
2016,08,12,16,24,26.20
2016,08,12,16,25,26.20
2016,08,12,16,26,26.30
2016,08,12,16,27,26.30
2016,08,12,16,28,26.30
2016,08,12,16,29,26.30
2016,08,12,16,30,26.30
2016,08,12,16,31,26.30
2016,08,12,16,32,26.40
2016,08,12,16,33,26.50
2016,08,12,16,34,26.60
2016,08,12,16,35,26.60
2016,08,12,16,36,26.50
2016,08,12,16,37,26.50
2016,08,12,16,38,26.40
2016,08,12,16,39,26.30
2016,08,12,16,40,26.20
2016,08,12,16,41,26.10
2016,08,12,16,42,26.00
2016,08,12,16,43,25.90
2016,08,12,16,44,25.70
2016,08,12,16,45,25.60
2016,08,12,16,46,25.60
2016,08,12,16,47,25.70
2016,08,12,16,48,25.80
2016,08,12,16,49,25.80
2016,08,12,16,50,25.80
2016,08,12,16,51,25.80
2016,08,12,16,52,25.80
2016,08,12,16,53,25.70
2016,08,12,16,54,25.60
2016,08,12,16,55,25.50
2016,08,12,16,56,25.40
2016,08,12,16,57,25.40
2016,08,12,16,58,25.40
2016,08,12,16,59,25.40
2016,08,12,17,00,25.50
2016,08,12,17,01,25.50
2016,08,12,17,02,25.60
2016,08,12,17,03,25.60
2016,08,12,17,04,25.60
2016,08,12,17,05,25.60
2016,08,12,17,06,25.60
2016,08,12,17,07,25.70
2016,08,12,17,08,25.80
2016,08,12,17,09,25.80
2016,08,12,17,10,25.80
2016,08,12,17,11,25.90
2016,08,12,17,12,26.00
2016,08,12,17,13,26.10
2016,08,12,17,14,26.20
2016,08,12,17,15,26.30
2016,08,12,17,16,26.30
2016,08,12,17,17,26.40
2016,08,12,17,18,26.30
2016,08,12,17,19,26.30